Regional Weather Roundup
Issued by NWS

Home | Current Version | Previous Version | Graphics & Text | Print | Product List | Glossary On
Versions: 1 2 3 4 5 6 7 8 9 10 11 12 13 14 15 16 17 18 19 20 21 22 23 24 25 26 27 28 29 30 31 32 33 34 35 36 37 38 39 40 41 42 43 44 45 46 47 48 49 50
000
ASUS43 KLOT 310700
RWRIL

ILLINOIS REGIONAL WEATHER ROUNDUP
NATIONAL WEATHER SERVICE CHICAGO/ROMEOVILLE IL
200 AM CDT THU JUL 31 2014

NOTE: "FAIR" INDICATES FEW OR NO CLOUDS BELOW 12,000 FEET WITH NO
SIGNIFICANT WEATHER AND/OR OBSTRUCTIONS TO VISIBILITY.

* THESE STATIONS ARE NOT UNDER NWS QUALITY CONTROL. THEY ALSO MAY NOT
  REPORT WEATHER SUCH AS PRECIPITATION OR FOG.

ILZ001-002-007-009-015-016-024-310800-
NORTHWEST ILLINOIS

CITY           SKY/WX    TMP DP  RH WIND       PRES   REMARKS
MOLINE         CLEAR     60  57  89 SW3       30.06S
STERLING*      CLEAR     55  52  88 CALM      30.06S
$$

ILZ003-004-008-010-011-017-018-310800-
NORTH CENTRAL ILLINOIS

CITY           SKY/WX    TMP DP  RH WIND       PRES   REMARKS
ROCKFORD       CLEAR     57  54  89 S5        30.05F
$$

ILZ005-006-012>014-019>023-310800-
NORTHEAST ILLINOIS

CITY           SKY/WX    TMP DP  RH WIND       PRES   REMARKS
CHICAGO-OHARE  CLEAR     62  55  77 CALM      30.03F
CHICAGO-MIDWAY CLEAR     65  60  84 S7        30.03F
AURORA         CLEAR     55  52  89 CALM      30.04F
LANSING*       CLEAR     58  56  94 CALM      30.04S FOG
WAUKEGAN       CLEAR     59  56  89 SW6       30.02S
DUPAGE AIRPORT CLEAR     60  56  86 CALM      30.03F
WHEELING       CLEAR     61  56  83 CALM      30.05S
NORTHERLY ISL    N/A     65  60  84 SW3         N/A
$$

LMZ740>746-310800-
SOUTHERN LAKE MICHIGAN

STATION/POSITION SKY/WX   TEMP    WIND        PRES    VSBY  WAVE
                          AIR SEA DIR/SP/G                  HT/PER
                          (F)     (DEG/KT/KT) (MB)    (MI)  (FT/S)
SOUTHERN BUOY              61 60  210/  6/  8 1016.7S         0
WAUKEGAN HARBOR            62     230/  4/  5   N/A
HARRISON CRIB              65     180/  8/  9   N/A
BURNHAM HARBOR             65     210/  2/  4   N/A
CALUMET HARBOR             64     210/  2/  3 1016.0F
MICHIGAN CITY              62     140/  4/  5   N/A
MICHIGAN CITY 6N           65 69  170/  4/  6   N/A           1
ST. JOSEPH                 65 69  170/  8/ 10   N/A           1
$$

ILZ025>027-034>036-040-047-049-050-058-095>099-310800-
WEST-CENTRAL ILLINOIS

CITY           SKY/WX    TMP DP  RH WIND       PRES   REMARKS
QUINCY         CLEAR     64  58  80 CALM      30.08F
GALESBURG*     CLEAR     58  56  96 CALM      30.07S
MACOMB*          N/A     57  56  95 CALM      30.09S
$$

ILZ028>032-037-038-041>044-048-051>054-059>061-310800-
CENTRAL ILLINOIS

CITY           SKY/WX    TMP DP  RH WIND       PRES   REMARKS
DECATUR        PTCLDY    63  60  90 CALM      30.07S
PEORIA         CLEAR     65  58  78 CALM      30.06F
SPRINGFIELD    CLEAR     61  58  90 CALM      30.07F
TAYLORVILLE    NOT AVBL
$$

ILZ033-039-045-046-055>057-062-063-310800-
EAST-CENTRAL ILLINOIS

CITY           SKY/WX    TMP DP  RH WIND       PRES   REMARKS
CHAMPAIGN      CLEAR     61  59  93 SW3       30.07S
MATTOON        CLEAR     64  59  83 SW6       30.07S
$$

ILZ079-100>102-310800-
SOUTHWEST ILLINOIS

CITY           SKY/WX    TMP DP  RH WIND       PRES   REMARKS
BELLEVILLE     PTCLDY    62  62  99 CALM      30.06F FOG
CAHOKIA*       CLEAR     62  60  93 CALM      30.07S
SPARTA*        PTCLDY    61  59  94 CALM      30.08F
$$

ILZ064>066-069>071-074>076-080>082-084>086-088>090-092>094-310800-
SOUTH-CENTRAL ILLINOIS

CITY           SKY/WX    TMP DP  RH WIND       PRES   REMARKS
CARBONDALE     PTCLDY    61  58  90 CALM      30.08S FOG
MT. VERNON     CLEAR     61  55  82 CALM      30.09S
SALEM*         CLEAR    N/A N/A N/A CALM      30.08S HAZE
$$

ILZ067-068-072-073-078-083-087-091-310800-
SOUTHEAST ILLINOIS

CITY           SKY/WX    TMP DP  RH WIND       PRES   REMARKS
LAWRENCEVILLE  CLEAR     62  60  93 S5        30.08S
HARRISBURG*    PTCLDY    60  60 100 CALM      30.09S FOG
ROBINSON*      CLEAR     61  60  95 CALM      30.08S
$$

ABBREVIATIONS USED IN REMARKS
   TC - TEMPERATURE IN CELSIUS
  WCI - WIND CHILL INDEX
   HX - HEAT INDEX
  VSB - VISIBILITY
$$



USA.gov is the U.S. government's official web portal to all federal, state and local government web resources and services.